Regional Weather Roundup
Issued by NWS

Home | Current Version | Previous Version | Text Only | Print | Product List | Glossary On
Versions: 1 2 3 4 5 6 7 8 9 10 11 12 13 14 15 16 17 18 19 20 21 22 23 24 25 26 27 28 29 30 31 32 33 34 35 36 37 38 39 40 41 42 43 44 45 46 47 48 49 50
000
ASUS44 KFWD 160415
RWRTX
NORTH TEXAS HOURLY WEATHER ROUNDUP
NATIONAL WEATHER SERVICE FORT WORTH TX
1100 PM CDT TUE APR 15 2014

NOTE: "FAIR" INDICATES FEW OR NO CLOUDS BELOW 12,000 FEET WITH NO
SIGNIFICANT WEATHER AND/OR OBSTRUCTIONS TO VISIBILITY.

TXZ118-119-160500-
DALLAS/FORT WORTH METROPLEX

CITY           SKY/WX    TMP DP  RH WIND       PRES   REMARKS
DFW AIRPORT    CLEAR     50  30  46 S9        30.12F
DALLAS LOVE    CLEAR     54  27  35 S9        30.14F
FTW MEACHAM    CLEAR     51  29  42 SE10      30.11F
DAL-EXECUTIVE  CLEAR     50  30  46 S7        30.13F
FTW-ALLIANCE   CLEAR     49  29  46 S9        30.11F
FTW-NAS-JRB    CLEAR     56  24  29 SE8       30.16F
FTW-SPINKS     CLEAR     48  30  48 SE6       30.14F
ARLINGTON      CLEAR     49  32  52 SE8       30.13F
GRAND PRAIRIE  CLEAR     52  32  46 S5        30.16F
ADDISON        CLEAR     54  27  35 SE13      30.15F
MESQUITE       CLEAR     47  33  58 SE7       30.16S
LANCASTER      CLEAR     46  34  62 SE5       30.16F
$$

TXZ091>094-102>105-117-120-121-131>134-160500-
NORTH CENTRAL TEXAS

CITY           SKY/WX    TMP DP  RH WIND       PRES   REMARKS
SHRMAN/DENISON CLEAR     50  24  36 SE10      30.13F
GAINESVILLE    CLEAR     45  29  54 SE7       30.12F
BOWIE          CLEAR     47  27  45 SE3       30.09S
BRIDGEPORT     CLEAR     50  23  34 SE8       30.11F
DECATUR        CLEAR     51  24  34 SE9       30.10S
DENTON         CLEAR     48  29  47 SE8       30.11F
MCKINNEY       CLEAR     48  32  53 SE8       30.14F
GREENVILLE     CLEAR     43  34  70 SE6       30.16F WCI  39
ROCKWALL       CLEAR     48  31  52 E7        30.14F
TERRELL        CLEAR     47  31  53 SE6       30.16F
WAXAHACHIE     CLEAR     47  32  56 SE6       30.16S
CLEBURNE       CLEAR     48  32  53 SE10      30.15S
GRANBURY       CLEAR     53  28  38 SE9       30.13S
$$

TXZ083>090-098>101-113>116-127>130-139>142-154-155-160500-
WESTERN NORTH TEXAS

CITY           SKY/WX    TMP DP  RH WIND       PRES   REMARKS
WICHITA FALLS  CLEAR     50  20  30 SE12      30.04F
WF-KICKAPOO    CLEAR     52  22  31 SE10      30.07S
VERNON         CLEAR     53  15  22 SE9       30.02S
ABILENE        CLEAR     52  16  24 SE13      30.04F
ABILENE-DYESS  CLEAR     48  16  27 S10       30.03F
BRECKENRIDGE   CLEAR     53  19  25 SE10      30.06F
GRAHAM         CLEAR     53  22  30 SE8       30.06S
MINERAL WELLS  CLEAR     49  27  42 SE7       30.09S
STEPHENVILLE   CLEAR     48  27  43 SE5       30.13F
COMANCHE       CLEAR     49  26  40 S9        30.11S
BROWNWOOD      CLEAR     50  25  37 SE9       30.09F
COLEMAN        CLEAR     51  23  32 SE10      30.08S
BRADY            N/A     50  19  29 SE8       30.09F
$$

TXZ143>147-156>162-174-175-160500-
CENTRAL TEXAS

CITY           SKY/WX    TMP DP  RH WIND       PRES   REMARKS
WACO           CLEAR     46  33  60 SE5       30.16S
WACO-TSTC      CLEAR     46  32  57 SE3       30.17S
WACO-MCGREGOR  CLEAR     45  28  53 S6        30.17S
HILLSBORO      CLEAR     49  32  51 SE9       30.15S
CORSICANA      CLEAR     49  34  56 SE8       30.18S
MEXIA          CLEAR     47  33  57 CALM      30.17S
HEARNE         CLEAR     44  39  83 CALM      30.18F
CAMERON        CLEAR     46  33  60 SE3       30.17S
TEMPLE         CLEAR     46  28  49 SE5         N/A
KILLEEN        CLEAR     46  23  39 SE7       30.14F
KILLEEN-SKYLRK CLEAR     52  30  43 SE7       30.15S
FORT HOOD      CLEAR     50  31  48 SE5       30.14F
GATESVILLE     CLEAR     46  32  57 CALM      30.17S
HAMILTON       CLEAR     48  30  49 S10       30.14S
LAMPASAS       CLEAR     48  31  53 CALM      30.13F
$$

TXZ095>097-106>112-122>126-135>138-148>153-164>167-160500-
EAST TEXAS

CITY           SKY/WX    TMP DP  RH WIND       PRES   REMARKS
PARIS          CLEAR     46  32  57 S8        30.17F
SULPHUR SPRNGS CLEAR     49  32  52 SE6       30.18F
CLARKSVILLE    CLEAR     47  34  58 CALM      30.17F
MOUNT PLEASANT CLEAR     43  39  88 CALM      30.20F
GILMER         CLEAR     43  37  81 CALM      30.20F
MINEOLA        CLEAR     41  37  87 CALM      30.19S
TYLER          CLEAR     47  35  63 CALM      30.18S
LONGVIEW       CLEAR     44  38  79 CALM      30.19S
MARSHALL       CLEAR     41  37  86 CALM      30.21F
ATHENS         CLEAR     39  36  87 CALM      30.17F
PALESTINE      CLEAR     44  38  79 CALM      30.20S
JACKSONVILLE   CLEAR     49  28  43 CALM      30.19F
HENDERSON      CLEAR     41  37  86 CALM      30.20S
NACOGDOCHES    CLEAR     37  34  87 CALM      30.20S
LUFKIN         CLEAR     45  39  79 E3        30.19S
$$

SUPPLEMENTAL OBSERVATIONS (CENTRAL)

CITY           SKY/WX    TMP DP  RH WIND       PRES   REMARKS
LAKE TEXOMA      N/A     48  25  40 SE7         N/A
CADDO GRASSLND   N/A     48  32  53 S6          N/A
PAT MAYSE LAKE   N/A     52  32  46 SE9         N/A
GREENVILLE       N/A     46  30  53 SE3         N/A
CEDAR HILL       N/A     48  32  53 SE7         N/A
ATHENS           N/A     43  37  81 CALM        N/A
PALESTINE        N/A     41  37  87 CALM        N/A
LAKE LIMESTONE   N/A     45  32  61 E1          N/A
MCGREGOR         N/A     52  30  43 SE8         N/A
TEMPLE           N/A     50  28  43 SE3         N/A
$$

SUPPLEMENTAL OBSERVATIONS (WEST)

CITY           SKY/WX    TMP DP  RH WIND       PRES   REMARKS
MILLERS CREEK    N/A     52  19  28 S14         N/A
POSSUM KINGDOM   N/A     54  23  30 S8          N/A
LBJ GRASSLAND    N/A     54  23  30 SE10        N/A
GRANBURY         N/A     52  28  40 S10         N/A
COMANCHE         N/A     50  25  37 S14         N/A
HAMBY            N/A     52  18  25 SE8         N/A
IVIE RESERVOIR   N/A     50  16  25 SE8         N/A
COLORADO BEND    N/A     52  27  37 SE9         N/A
$$

SUPPLEMENTAL OBSERVATIONS (EAST)

CITY           SKY/WX    TMP DP  RH WIND       PRES   REMARKS
CLARKSVILLE      N/A     46  32  57 S5          N/A
TEXARKANA        N/A     39  36  87 CALM        N/A
LINDEN           N/A     43  39  87 CALM        N/A
GILMER           N/A     39  36  87 CALM        N/A
HENDERSON        N/A     39  36  87 CALM        N/A
LUFKIN           N/A     43  37  81 MISG        N/A
N SABINE NF      N/A     39  36  87 MISG        N/A
S SABINE NF      N/A     39  36  87 CALM        N/A
$$

SUPPLEMENTAL OBSERVATIONS ARE A COLLECTION OF AUTOMATED INSTRUMENTS
THAT ARE MAINTAINED BY A VARIETY OF FEDERAL AND STATE AGENCIES.
CERTAIN ELEMENTS...SUCH AS HUMIDITY VALUES AND SUSTAINED WIND
SPEEDS...MAY BE APPROXIMATED.




USA.gov is the U.S. government's official web portal to all federal, state and local government web resources and services.